Weather History for Pickens County Airport, SC

Change the Weather History Date:

Sunday, February 9, 2014

  Actual Average Record
Temperature  
Mean Temperature 44 °F -  
Max Temperature 59 °F 53 °F 59 °F (2014)
Min Temperature 29 °F 29 °F 29 °F (2014)
Degree Days  
Heating Degree Days 21    
Moisture  
Dew Point 35 °F    
Average Humidity 75    
Maximum Humidity 100    
Minimum Humidity 44    
Precipitation  
Precipitation 0.00 in - - ()
Sea Level Pressure  
Sea Level Pressure 30.06 in    
Wind  
Wind Speed - (North)    
Max Wind Speed -    
Max Gust Speed -    
Visibility 10 miles    
Events      
Averages and records for this station are not official NWS values.
T = Trace of Precipitation, MM = Missing Value Source: NWS Daily Summary

Daily Weather History Graph

Daily Weather History Graph

Search for Another Location

Airport:

Trip Planner

Search our weather history database for the weather conditions in past years. The results will help you decide how hot, cold, wet, or windy it might be!

Date:

Astronomy

Feb. 09, 2014 Rise Set
Actual Time 7:22 AM EST 6:08 PM EST
Civil Twilight 6:56 AM EST 6:34 PM EST
Nautical Twilight 6:26 AM EST 7:03 PM EST
Astronomical Twilight 5:57 AM EST 7:33 PM EST
Moon 1:51 PM EST (2/9) 3:22 AM EST (2/9)
Length of Visible Light 11h 37m
Length of Day
10h 45m
Waxing Gibbous, 77% of the Moon is Illuminated
Feb 9
Waxing Gibbous
Feb 14
Full
Feb 22
Last Quarter
Mar 1
New
Mar 8
First Quarter

Hourly Weather History & Observations

Time (EST) Temp. Dew Point Humidity Pressure Visibility Wind Dir Wind Speed Gust Speed Precip Events Conditions
12:15 AM 34.3 °F 33.3 °F 96% 30.12 in 10.0 mi North - - N/A   Clear
12:35 AM 32.0 °F 32.2 °F 100% 30.12 in 10.0 mi North - - N/A   Clear
12:55 AM 32.5 °F 32.7 °F 100% 30.11 in 10.0 mi North - - N/A   Clear
1:15 AM 32.9 °F 32.9 °F 100% 30.11 in 10.0 mi North - - N/A   Clear
1:35 AM 30.6 °F 30.6 °F 100% 30.11 in 10.0 mi North - - N/A   Clear
1:55 AM - - N/A% 30.10 in 10.0 mi North - - N/A   Clear
2:15 AM 31.1 °F 31.1 °F 100% 30.09 in 10.0 mi North - - N/A   Clear
2:35 AM 29.5 °F 29.7 °F 100% 30.08 in 10.0 mi North - - N/A   Clear
2:55 AM 29.5 °F 29.7 °F 100% 30.08 in 10.0 mi North - - N/A   Clear
3:15 AM 30.4 °F 30.4 °F 100% 30.07 in 10.0 mi North - - N/A   Clear
3:35 AM 29.7 °F 29.7 °F 100% 30.07 in 10.0 mi North - - N/A   Clear
3:55 AM 29.8 °F 30.0 °F 100% 30.07 in 10.0 mi North - - N/A   Clear
4:15 AM 30.2 °F 30.2 °F 100% 30.07 in 10.0 mi North - - N/A   Scattered Clouds
4:35 AM 30.7 °F 30.9 °F 100% 30.07 in 10.0 mi North - - N/A   Mostly Cloudy
4:55 AM 31.5 °F 31.6 °F 100% 30.08 in 10.0 mi North - - N/A   Mostly Cloudy
5:15 AM 31.5 °F 31.5 °F 100% 30.07 in 10.0 mi North - - N/A   Scattered Clouds
5:35 AM 31.6 °F 31.8 °F 100% 30.07 in 10.0 mi North - - N/A   Mostly Cloudy
5:55 AM 31.8 °F 32.0 °F 100% 30.07 in 10.0 mi North - - N/A   Overcast
6:15 AM 32.4 °F 32.4 °F 100% 30.08 in 10.0 mi North - - N/A   Mostly Cloudy
6:35 AM 32.9 °F 32.9 °F 100% 30.07 in 10.0 mi North - - N/A   Mostly Cloudy
6:55 AM 32.2 °F 32.2 °F 100% 30.08 in 10.0 mi North - - N/A   Mostly Cloudy
7:15 AM 32.7 °F 32.7 °F 100% 30.09 in 10.0 mi North - - N/A   Overcast
7:35 AM - - N/A% 30.10 in 10.0 mi North - - N/A   Overcast
7:55 AM 33.3 °F 33.4 °F 100% 30.09 in 10.0 mi North - - N/A   Mostly Cloudy
8:15 AM 33.1 °F 33.3 °F 100% 30.10 in 10.0 mi North - - N/A   Scattered Clouds
8:35 AM 33.3 °F 33.4 °F 100% 30.10 in 10.0 mi North - - N/A   Clear
8:55 AM 35.1 °F 34.9 °F 99% 30.11 in 10.0 mi North - - N/A   Clear
9:15 AM 38.3 °F 36.5 °F 93% 30.11 in 10.0 mi North - - N/A   Clear
9:35 AM 41.5 °F 37.6 °F 86% 30.11 in 10.0 mi North - - N/A   Clear
9:55 AM 44.2 °F 37.6 °F 77% 30.10 in 10.0 mi North - - N/A   Clear
10:15 AM 46.6 °F 37.9 °F 72% 30.09 in 10.0 mi North - - N/A   Clear
10:35 AM 48.4 °F 38.1 °F 68% 30.10 in 10.0 mi North - - N/A   Clear
10:55 AM 50.9 °F 38.1 °F 62% 30.10 in 10.0 mi North - - N/A   Clear
11:15 AM 52.5 °F 38.1 °F 58% 30.10 in 10.0 mi North - - N/A   Clear
11:35 AM 53.4 °F 37.6 °F 55% 30.11 in 10.0 mi North - - N/A   Mostly Cloudy
11:55 AM 52.7 °F 37.4 °F 56% 30.10 in 10.0 mi North - - N/A   Overcast
12:15 PM 54.0 °F 37.8 °F 54% 30.08 in 10.0 mi North - - N/A   Scattered Clouds
12:35 PM 56.5 °F 38.1 °F 50% 30.06 in 10.0 mi North - - N/A   Clear
12:55 PM 57.6 °F 38.1 °F 48% 30.05 in 10.0 mi North - - N/A   Clear
1:15 PM 57.9 °F 37.9 °F 47% 30.03 in 10.0 mi North - - N/A   Clear
1:35 PM 59.2 °F 38.1 °F 46% 30.03 in 10.0 mi North - - N/A   Clear
1:55 PM 59.2 °F 37.8 °F 45% 30.02 in 10.0 mi North - - N/A   Clear
2:15 PM 59.0 °F 37.9 °F 46% 30.01 in 10.0 mi North - - N/A   Clear
2:35 PM 59.7 °F 37.9 °F 44% 29.99 in 10.0 mi North - - N/A   Clear
2:55 PM 59.7 °F 38.3 °F 45% 29.98 in 10.0 mi North - - N/A   Clear
3:15 PM 59.2 °F 38.1 °F 46% 29.98 in 10.0 mi North - - N/A   Clear
3:35 PM 59.7 °F 38.1 °F 45% 29.98 in 10.0 mi North - - N/A   Clear
3:55 PM 59.5 °F 38.3 °F 45% 29.98 in 10.0 mi North - - N/A   Clear
4:15 PM 59.4 °F 37.9 °F 45% 29.98 in 10.0 mi North - - N/A   Clear
4:35 PM 57.9 °F 37.8 °F 47% 29.99 in 10.0 mi North - - N/A   Clear
4:55 PM 56.5 °F 38.1 °F 50% 30.00 in 10.0 mi North - - N/A   Clear
5:15 PM 56.1 °F 38.3 °F 51% 30.00 in 10.0 mi North - - N/A   Clear
5:35 PM 55.9 °F 38.3 °F 52% 30.00 in 10.0 mi North - - N/A   Clear
5:55 PM 54.3 °F 37.8 °F 54% 30.01 in 10.0 mi North - - N/A   Clear
6:15 PM 52.7 °F 37.4 °F 56% 30.02 in 10.0 mi North - - N/A   Clear
6:35 PM - - N/A% 30.04 in - North - - N/A   Unknown
6:55 PM 50.5 °F 36.9 °F 59% 30.05 in 10.0 mi North - - N/A   Clear
7:15 PM 50.0 °F 36.5 °F 60% 30.05 in 10.0 mi North - - N/A   Clear
7:35 PM 49.8 °F 36.5 °F 60% 30.04 in 10.0 mi North - - N/A   Clear
7:55 PM 49.3 °F 36.0 °F 60% 30.05 in 10.0 mi North - - N/A   Clear
8:15 PM 48.4 °F 35.6 °F 61% 30.04 in 10.0 mi North - - N/A   Clear
8:35 PM 47.3 °F 35.6 °F 64% 30.05 in 10.0 mi North - - N/A   Clear
8:55 PM 47.1 °F 35.8 °F 65% 30.05 in 10.0 mi North - - N/A   Clear
9:15 PM 46.2 °F 35.8 °F 67% 30.07 in 10.0 mi North - - N/A   Clear
9:35 PM 45.0 °F 35.6 °F 70% 30.07 in 10.0 mi North - - N/A   Clear
9:55 PM 44.2 °F 35.2 °F 71% 30.06 in 10.0 mi North - - N/A   Clear
10:15 PM 42.6 °F 35.1 °F 75% 30.06 in 10.0 mi North - - N/A   Clear
10:35 PM 41.7 °F 34.9 °F 77% 30.05 in 10.0 mi North - - N/A   Clear
10:55 PM 40.3 °F 34.5 °F 80% 30.05 in 10.0 mi North - - N/A   Clear
11:15 PM 38.8 °F 34.5 °F 84% 30.04 in 10.0 mi North - - N/A   Clear
11:35 PM 37.4 °F 34.0 °F 87% 30.04 in 10.0 mi North - - N/A   Clear
11:55 PM 37.4 °F 34.2 °F 88% 30.04 in 10.0 mi North - - N/A   Clear